| time (UTC) | temp F | wind direction | speed MPH | gust MPH | rain 1hr in | rain 24hr in | rain mn in | humidity % | barometer mb |
| 20260505194537 | 75 | 124 | 8.0 | 12.0 | 0.00 | 0.00 | 0.00 | 59 | 1019.3 |
| 20260505193042 | 75 | 99 | 8.0 | 10.0 | 0.00 | 0.00 | 0.00 | 59 | 1019.4 |
| 20260505191540 | 75 | 98 | 8.0 | 10.0 | 0.00 | 0.00 | 0.00 | 58 | 1019.5 |
| 20260505190046 | 75 | 101 | 8.0 | 10.0 | 0.00 | 0.00 | 0.00 | 58 | 1019.4 |
| 20260505184538 | 75 | 110 | 7.0 | 10.0 | 0.00 | 0.00 | 0.00 | 59 | 1019.8 |
| 20260505183044 | 75 | 99 | 8.0 | 10.0 | 0.00 | 0.00 | 0.00 | 57 | 1019.8 |
| 20260505181537 | 75 | 100 | 7.0 | 10.0 | 0.00 | 0.00 | 0.00 | 59 | 1019.8 |
| 20260505180045 | 75 | 107 | 7.0 | 10.0 | 0.00 | 0.00 | 0.00 | 59 | 1020.1 |
| 20260505174545 | 75 | 88 | 7.0 | 8.0 | 0.00 | 0.00 | 0.00 | 60 | 1020.1 |
| 20260505173043 | 75 | 86 | 7.0 | 9.0 | 0.00 | 0.00 | 0.00 | 60 | 1020.2 |
| 20260505171536 | 75 | 114 | 6.0 | 8.0 | 0.00 | 0.00 | 0.00 | 61 | 1020.4 |
| 20260505170037 | 75 | 120 | 6.0 | 8.0 | 0.00 | 0.00 | 0.00 | 58 | 1020.6 |
| 20260505164538 | 75 | 95 | 5.0 | 8.0 | 0.00 | 0.00 | 0.00 | 56 | 1020.6 |
| 20260505163036 | 75 | 126 | 6.0 | 9.0 | 0.00 | 0.00 | 0.00 | 60 | 1020.5 |
| 20260505161535 | 74 | 108 | 7.0 | 9.0 | 0.00 | 0.00 | 0.00 | 60 | 1020.5 |
| 20260505153045 | 75 | 116 | 7.0 | 9.0 | 0.00 | 0.00 | 0.00 | 58 | 1020.2 |
| 20260505151536 | 75 | 91 | 6.0 | 8.0 | 0.00 | 0.00 | 0.00 | 60 | 1020.4 |
| 20260505124538 | 74 | 127 | 6.0 | 9.0 | 0.00 | 0.00 | 0.00 | 65 | 1019.5 |
| 20260505123042 | 73 | 124 | 8.0 | 10.0 | 0.00 | 0.00 | 0.00 | 63 | 1019.4 |
| 20260505121542 | 74 | 108 | 6.0 | 10.0 | 0.00 | 0.00 | 0.00 | 65 | 1019.2 |
| 20260505120047 | 73 | 120 | 8.0 | 10.0 | 0.00 | 0.00 | 0.00 | 66 | 1019.2 |
| 20260505114542 | 73 | 103 | 9.0 | 11.0 | 0.00 | 0.00 | 0.00 | 65 | 1019.2 |
| 20260505113035 | 73 | 124 | 5.0 | 9.0 | 0.00 | 0.00 | 0.00 | 65 | 1018.9 |
| 20260505111539 | 72 | 136 | 4.0 | 10.0 | 0.00 | 0.00 | 0.00 | 66 | 1018.9 |
| 20260505101543 | 71 | 145 | 6.0 | 10.0 | 0.00 | 0.00 | 0.00 | 67 | 1018.5 |
| 20260505100041 | 71 | 168 | 4.0 | 9.0 | 0.00 | 0.00 | 0.00 | 67 | 1018.4 |
| 20260505094538 | 71 | 175 | 6.0 | 10.0 | 0.00 | 0.00 | 0.00 | 66 | 1018.2 |
| 20260505093035 | 71 | 150 | 4.0 | 11.0 | 0.00 | 0.00 | 0.00 | 65 | 1018.1 |
| 20260505091539 | 71 | 121 | 6.0 | 10.0 | 0.00 | 0.00 | 0.00 | 65 | 1018.1 |
| 20260505090038 | 71 | 168 | 4.0 | 10.0 | 0.00 | 0.00 | 0.00 | 65 | 1018.1 |
| 20260505084543 | 71 | 135 | 3.0 | 9.0 | 0.00 | 0.00 | 0.00 | 66 | 1018.2 |
| 20260505083041 | 71 | 168 | 5.0 | 10.0 | 0.00 | 0.00 | 0.00 | 64 | 1018.1 |
| 20260505081538 | 71 | 171 | 5.0 | 11.0 | 0.00 | 0.00 | 0.00 | 66 | 1018.0 |
| 20260505080037 | 71 | 117 | 5.0 | 11.0 | 0.00 | 0.00 | 0.00 | 66 | 1017.9 |
| 20260505074537 | 72 | 185 | 6.0 | 12.0 | 0.00 | 0.00 | 0.00 | 65 | 1018.0 |
| 20260505073042 | 72 | 158 | 6.0 | 11.0 | 0.00 | 0.00 | 0.00 | 66 | 1018.1 |
| 20260505071540 | 72 | 144 | 6.0 | 10.0 | 0.00 | 0.00 | 0.00 | 67 | 1018.1 |
| 20260505070050 | 72 | 156 | 6.0 | 14.0 | 0.00 | 0.00 | 0.00 | 64 | 1017.9 |
| 20260505064537 | 72 | 116 | 10.0 | 13.0 | 0.00 | 0.00 | 0.00 | 64 | 1018.1 |
| 20260505063035 | 72 | 103 | 7.0 | 11.0 | 0.00 | 0.00 | 0.00 | 65 | 1018.4 |
| 20260505061543 | 72 | 160 | 5.0 | 12.0 | 0.00 | 0.00 | 0.00 | 65 | 1018.2 |
| 20260505060040 | 72 | 169 | 6.0 | 12.0 | 0.00 | 0.00 | 0.00 | 64 | 1018.4 |
| 20260505054540 | 72 | 111 | 9.0 | 13.0 | 0.00 | 0.00 | 0.00 | 63 | 1018.6 |
| 20260505053037 | 72 | 160 | 7.0 | 12.0 | 0.00 | 0.00 | 0.00 | 63 | 1018.9 |
| 20260505051541 | 72 | 143 | 7.0 | 13.0 | 0.00 | 0.00 | 0.00 | 65 | 1019.1 |
| 20260505041549 | 72 | 161 | 7.0 | 15.0 | 0.00 | 0.00 | 0.00 | 63 | 1019.3 |
| 20260505040052 | 72 | 121 | 8.0 | 16.0 | 0.00 | 0.00 | 0.00 | 64 | 1019.3 |
| 20260505034538 | 72 | 182 | 6.0 | 14.0 | 0.00 | 0.00 | 0.00 | 65 | 1019.3 |
| 20260505033039 | 72 | 146 | 7.0 | 16.0 | 0.00 | 0.00 | 0.00 | 64 | 1019.5 |
| 20260505031543 | 72 | 113 | 8.0 | 17.0 | 0.00 | 0.00 | 0.00 | 66 | 1019.6 |
| 20260505030035 | 72 | 162 | 8.0 | 19.0 | 0.00 | 0.00 | 0.00 | 66 | 1019.7 |
| 20260505024554 | 72 | 120 | 16.0 | 19.0 | 0.00 | 0.00 | 0.00 | 65 | 1019.7 |
| 20260505023039 | 72 | 130 | 16.0 | 19.0 | 0.00 | 0.00 | 0.00 | 64 | 1019.8 |
| 20260505021539 | 72 | 118 | 16.0 | 18.0 | 0.00 | 0.00 | 0.00 | 63 | 1019.8 |
| 20260505020037 | 72 | 160 | 15.0 | 19.0 | 0.00 | 0.00 | 0.00 | 65 | 1019.8 |
| 20260505014601 | 72 | 137 | 13.0 | 18.0 | 0.00 | 0.00 | 0.00 | 66 | 1019.6 |
| 20260505013108 | 72 | 120 | 15.0 | 18.0 | 0.00 | 0.00 | 0.00 | 66 | 1019.5 |
| 20260505011545 | 72 | 128 | 14.0 | 18.0 | 0.00 | 0.00 | 0.00 | 63 | 1019.4 |
| 20260505010039 | 72 | 134 | 14.0 | 17.0 | 0.00 | 0.00 | 0.00 | 63 | 1019.4 |
| 20260505004539 | 72 | 125 | 15.0 | 17.0 | 0.00 | 0.00 | 0.00 | 64 | 1019.3 |
| 20260505003035 | 72 | 133 | 13.0 | 20.0 | 0.00 | 0.00 | 0.00 | 64 | 1019.2 |
| 20260505001539 | 72 | 117 | 13.0 | 18.0 | 0.00 | 0.00 | 0.00 | 61 | 1018.9 |
| 20260505000051 | 72 | 117 | 15.0 | 19.0 | 0.00 | 0.00 | 0.00 | 62 | 1018.9 |
| 20260504234542 | 72 | 124 | 14.0 | 18.0 | 0.00 | 0.00 | 0.00 | 64 | 1018.6 |
| 20260504233052 | 72 | 123 | 9.0 | 18.0 | 0.00 | 0.00 | 0.00 | 61 | 1018.5 |
| 20260504231537 | 72 | 125 | 14.0 | 18.0 | 0.00 | 0.00 | 0.00 | 58 | 1018.6 |
| 20260504230042 | 72 | 127 | 15.0 | 18.0 | 0.00 | 0.00 | 0.00 | 60 | 1018.7 |
| 20260504224542 | 73 | 128 | 13.0 | 18.0 | 0.00 | 0.00 | 0.00 | 58 | 1018.9 |
| 20260504223055 | 73 | 147 | 14.0 | 16.0 | 0.00 | 0.00 | 0.00 | 60 | 1018.9 |
| 20260504221538 | 73 | 117 | 12.0 | 17.0 | 0.00 | 0.00 | 0.00 | 60 | 1018.9 |
| 20260504220035 | 73 | 124 | 13.0 | 19.0 | 0.00 | 0.00 | 0.00 | 60 | 1018.9 |
| 20260504214538 | 73 | 127 | 15.0 | 18.0 | 0.00 | 0.00 | 0.00 | 61 | 1019.1 |
| 20260504213051 | 73 | 162 | 11.0 | 16.0 | 0.00 | 0.00 | 0.00 | 61 | 1019.1 |
| 20260504211538 | 73 | 118 | 14.0 | 17.0 | 0.00 | 0.00 | 0.00 | 59 | 1019.1 |
| 20260504210042 | 73 | 128 | 14.0 | 18.0 | 0.00 | 0.00 | 0.00 | 61 | 1019.2 |
| 20260504204543 | 74 | 127 | 12.0 | 18.0 | 0.00 | 0.00 | 0.00 | 60 | 1019.2 |
| 20260504203058 | 73 | 127 | 13.0 | 18.0 | 0.00 | 0.00 | 0.00 | 61 | 1019.2 |
| 20260504201539 | 73 | 117 | 14.0 | 18.0 | 0.00 | 0.00 | 0.00 | 62 | 1019.2 |
| 20260504200038 | 73 | 166 | 15.0 | 19.0 | 0.00 | 0.00 | 0.00 | 62 | 1019.3 |